Weather History for Scottsdale, AZ

Change the Weather History Date:

Wednesday, November 16, 2011

  Actual Average Record
Temperature  
Mean Temperature 61 °F -  
Max Temperature 71 °F 71 °F 86 °F (1999)
Min Temperature 51 °F 48 °F 37 °F (2000)
Degree Days  
Heating Degree Days 4    
Growing Degree Days 11 (Base 50)    
Moisture  
Dew Point 48 °F    
Average Humidity 63    
Maximum Humidity 86    
Minimum Humidity 42    
Precipitation  
Precipitation 0.00 in - - ()
Sea Level Pressure  
Sea Level Pressure 30.08 in    
Wind  
Wind Speed 1 mph (SW)    
Max Wind Speed 6 mph    
Max Gust Speed -    
Visibility 10 miles    
Events      
Averages and records for this station are not official NWS values.
T = Trace of Precipitation, MM = Missing Value Source: NWS Daily Summary

Daily Weather History Graph

Daily Weather History Graph

Search for Another Location

Airport:

Trip Planner

Search our weather history database for the weather conditions in past years. The results will help you decide how hot, cold, wet, or windy it might be!

Date:

Astronomy

Nov. 16, 2011 Rise Set
Actual Time 7:00 AM MST 5:24 PM MST
Civil Twilight 6:33 AM MST 5:50 PM MST
Nautical Twilight 6:03 AM MST 6:20 PM MST
Astronomical Twilight 5:34 AM MST 6:50 PM MST
Moon 10:39 PM MST (11/16) 11:39 AM MST (11/16)
Length of Visible Light 11h 17m
Length of Day
10h 24m
Waning Gibbous, 69% of the Moon is Illuminated
Nov 16
Waning Gibbous
Nov 18
Last Quarter
Nov 24
New
Dec 2
First Quarter
Dec 10
Full

Hourly Weather History & Observations

Time (MST) Temp. Dew Point Humidity Pressure Visibility Wind Dir Wind Speed Gust Speed Precip Events Conditions
12:53 AM 55.9 °F 48.0 °F 75% 30.01 in 10.0 mi Calm Calm - N/A   Clear
1:53 AM 53.1 °F 48.0 °F 83% 30.01 in 10.0 mi SSE 3.5 mph - N/A   Clear
3:53 AM 54.0 °F 48.0 °F 80% 30.02 in 10.0 mi Calm Calm - N/A   Clear
5:53 AM 52.0 °F 46.9 °F 83% 30.05 in 10.0 mi Calm Calm - N/A   Clear
6:53 AM 51.1 °F 46.9 °F 86% 30.07 in 10.0 mi Calm Calm - N/A   Clear
7:53 AM 53.1 °F 46.9 °F 80% 30.09 in 10.0 mi Calm Calm - N/A   Clear
8:53 AM 57.9 °F 48.0 °F 70% 30.11 in 10.0 mi Calm Calm - N/A   Clear
9:53 AM 61.0 °F 48.9 °F 64% 30.13 in 10.0 mi Calm Calm - N/A   Clear
10:53 AM 64.0 °F 48.9 °F 58% 30.13 in 10.0 mi WSW 4.6 mph - N/A   Clear
11:53 AM 66.9 °F 48.9 °F 52% 30.12 in 10.0 mi Calm Calm - N/A   Clear
12:53 PM 69.1 °F 48.9 °F 49% 30.09 in 10.0 mi SW 4.6 mph - N/A   Clear
1:53 PM 69.1 °F 48.0 °F 47% 30.08 in 10.0 mi SW 5.8 mph - N/A   Clear
2:53 PM 70.0 °F 46.9 °F 44% 30.06 in 10.0 mi Variable 3.5 mph - N/A   Clear
3:53 PM 71.1 °F 46.9 °F 42% 30.06 in 10.0 mi Calm Calm - N/A   Clear
5:53 PM 68.0 °F 46.0 °F 45% 30.07 in 10.0 mi Calm Calm - N/A   Clear
6:53 PM 64.9 °F 48.0 °F 54% 30.09 in 10.0 mi Calm Calm - N/A   Clear
7:53 PM 64.0 °F 46.9 °F 54% 30.10 in 10.0 mi Calm Calm - N/A   Clear
8:53 PM 62.1 °F 46.9 °F 58% 30.10 in 10.0 mi Calm Calm - N/A   Clear
9:53 PM 60.1 °F 46.9 °F 62% 30.11 in 10.0 mi Calm Calm - N/A   Clear
10:53 PM 57.9 °F 46.9 °F 67% 30.11 in 10.0 mi Calm Calm - N/A   Clear
11:53 PM 57.0 °F 46.9 °F 69% 30.09 in 10.0 mi Calm Calm - N/A   Clear